Overview Statistics Trail Chart Weather Telemetry Raw packets
 

This is the latest recevied weather packets stored in our database for station/object N0KTA-2. If no packets are shown the sender has not sent any weather packets the latest 10 day(s).

<< 37 38 39 40 41 42 43 >>
Time Temp. Humidity Pressure Rain* Wind** Luminosity Snow
1788103702 31.11° C 50% 1007.4 hPa 0 mm - - -
1788103103 31.11° C 50% 1007.3 hPa 0 mm - - -
1788102504 31.11° C 50% 1007.4 hPa 0 mm - - -
1788101903 30.56° C 51% 1007.3 hPa 0 mm - - -
1788101302 30.56° C 52% 1007.4 hPa 0 mm - - -
1788100703 30° C 53% 1007.6 hPa 0 mm - - -
1788100102 29.44° C 54% 1007.5 hPa 0 mm - - -
1788099503 28.33° C 55% 1007.8 hPa 0 mm - - -
1788098902 28.33° C 57% 1007.9 hPa 0 mm - - -
1788098302 27.78° C 58% 1007.9 hPa 0 mm - - -
1788097703 27.22° C 58% 1007.9 hPa 0 mm - - -
1788097103 26.67° C 59% 1008 hPa 0 mm - - -
1788096502 26.11° C 59% 1008.1 hPa 0 mm - - -
1788095903 26.11° C 59% 1008.1 hPa 0 mm - - -
1788095304 26.11° C 60% 1008 hPa 0 mm - - -
1788094702 26.11° C 59% 1008 hPa 0 mm - - -
1788094104 26.11° C 59% 1008 hPa 0 mm - - -
1788093503 25.56° C 59% 1008 hPa 0 mm - - -
1788092902 25.56° C 59% 1008 hPa 0 mm - - -
1788092303 25.56° C 59% 1007.9 hPa 0 mm - - -
1788091702 25.56° C 59% 1007.8 hPa 0 mm - - -
1788091103 25.56° C 58% 1007.8 hPa 0 mm - - -
1788090502 25.56° C 58% 1007.5 hPa 0 mm - - -
1788089902 26.11° C 58% 1007.4 hPa 0 mm - - -
1788089302 26.11° C 58% 1007.3 hPa 0 mm - - -

* Rain latest hour (hover to see other rain measurements)
** Current wind speed in m/s (hover to see current wind gust speed)